Retour au catalogue

STARLINK-5939

ActifCommunicationsVLEO
NORAD 56015·PAYLOAD·🇺🇸 United States

Lancé Mar 24, 2023 depuis Cape Canaveral Space Force Station

Loading…

Prochains Passages (prochaines 24 heures)

TLE

FraisSource: CelesTrak SupGP

Époque: Sep 14, 2026, 20:35 UTC

1 56015C 23042AF  26257.85812500  .00053500  00000+0  19377-2 0  2577
2 56015  43.0030  56.6560 0001444 271.4157 294.5748 15.27552431    12

Suivez STARLINK-5939 en temps réel avec AllMySat

Download on the App Store